Flag for Germany Weather past 2 weeks in Troisdorf, North Rhine-Westphalia, Germany

Now
52 °F

Fog.


Feels Like: 51 °F
Forecast: 51 / 68 °F
Wind: 3 mph from Southeast

Location: Koeln / Bonn

Current Time: Sep 2, 2014 at 2:55:46 AM

Latest Report: Sep 2, 2014 at 2:20 AM


Visibility: N/A

Pressure: 30.15 "Hg

Humidity: 94%

Dew point: 50 °F

Location of TroisdorfLocation

Historic Weather in Troisdorf — Graph

°F

Troisdorf temperature yesterday

Maximum temperature yesterday: 64 °F (at 1:50 PM)
Minimum temperature yesterday: 52 °F (at 12:20 AM)
Average temperature yesterday: 58 °F

Past Weeks' High & Low Weather Summary

 TemperatureHumidityPressure
High73 °F (Aug 28, 1:20 PM)100% (Aug 20, 7:20 AM)30.15 "Hg (Aug 20, 7:20 AM)
Low45 °F (Aug 20, 5:20 AM)40% (Aug 18, 2:20 PM)29.62 "Hg (Aug 26, 4:50 AM)
Average58 °F81%29.95 "Hg
* Reported Aug 18 1:20 AM — Sep 2 1:50 AM, Troisdorf, Weather by CustomWeather, © 2014

Note: Actual official high and low records may vary slightly from our data, if they occured in-between our weather recording intervals... More about our weather records

Advertising

Troisdorf weather history for previous 24 hours

 ConditionsComfort  
Time TempWeatherWind HumidityBarometerVisibility
1:50 AM
Sep 2
52 °FFog.3 mph94%30.15 "HgN/A
1:20 AM54 °FFog.5 mph94%30.15 "HgN/A
12:50 AM55 °FFog.5 mph94%30.15 "HgN/A
12:20 AM55 °FFog.5 mph94%30.15 "HgN/A
11:50 PM
Sep 1
55 °FFog.5 mph94%30.15 "HgN/A
11:20 PM55 °FFog.5 mph94%30.12 "HgN/A
10:20 PM55 °FFog.7 mph94%30.12 "HgN/A
9:50 PM57 °FClear.2 mph88%30.12 "Hg10 mi
9:20 PM59 °FClear.3 mph88%30.12 "Hg10 mi
8:50 PM59 °FPartly sunny.3 mph88%30.12 "HgN/A
8:20 PM59 °FPartly sunny.1 mph94%30.12 "HgN/A
7:50 PM63 °FPartly sunny.2 mph83%30.12 "HgN/A
7:20 PM64 °FPartly sunny.2 mph73%30.12 "HgN/A
6:20 PM64 °FPartly sunny.5 mph73%30.12 "HgN/A
5:50 PM64 °FPartly sunny.3 mph68%30.12 "HgN/A
5:20 PM64 °FPartly sunny.5 mph68%30.12 "HgN/A
4:50 PM64 °FPartly sunny.3 mph68%30.12 "HgN/A
4:20 PM64 °FPartly sunny.3 mph60%30.12 "HgN/A
3:50 PM64 °FBroken clouds.6 mph68%30.12 "HgN/A
3:20 PM64 °FScattered clouds.5 mph68%30.12 "HgN/A
2:50 PM63 °FPartly sunny.5 mph73%30.12 "HgN/A
2:20 PM63 °FBroken clouds.7 mph73%30.12 "HgN/A
1:50 PM64 °FScattered clouds.3 mph68%30.12 "HgN/A
1:20 PM63 °FPartly sunny.3 mph73%30.15 "HgN/A
12:50 PM63 °FPartly sunny.5 mph73%30.15 "HgN/A
12:20 PM61 °FScattered clouds.5 mph83%30.15 "HgN/A
11:50 AM59 °FScattered clouds.3 mph82%30.15 "HgN/A
11:20 AM59 °FPartly sunny.5 mph82%30.15 "HgN/A
10:50 AM57 °FPartly sunny.7 mph88%30.15 "HgN/A
10:20 AM57 °FBroken clouds.6 mph88%30.15 "Hg4 mi
9:50 AM57 °FFog.3 mph88%30.12 "Hg3 mi
9:20 AM55 °FFog.5 mph94%30.12 "Hg2 mi
8:50 AM55 °FFog.6 mph94%30.12 "Hg2 mi
8:20 AM55 °FFog.5 mph94%30.12 "Hg2 mi
7:50 AM54 °FFog.7 mph100%30.12 "Hg2 mi
7:20 AM54 °FFog.5 mph100%30.12 "Hg1 mi
6:50 AM54 °FFog.2 mph100%30.12 "Hg1 mi
6:20 AM54 °FFog.2 mph94%30.12 "Hg1 mi
5:50 AM54 °FFog.3 mph94%30.09 "Hg2 mi
5:20 AM54 °FFog.3 mph94%30.09 "Hg2 mi
4:50 AM54 °FFog.3 mph94%30.09 "Hg2 mi
4:20 AM54 °FFog.3 mph94%30.09 "Hg3 mi
3:50 AM54 °FFog.3 mph94%30.09 "Hg3 mi
3:20 AM54 °FFog.2 mph94%30.09 "Hg3 mi
2:50 AM54 °FFog.1 mph94%30.09 "Hg3 mi
2:20 AM52 °FFog.1 mph100%30.07 "Hg3 mi
Weather by CustomWeather, © 2014

See weather overviewHow to use our weather pages